Flag for Kazakhstan Weather past 2 weeks in Shymkent, Kazakhstan

Now
102 °F

Sunny.


Feels Like: 97 °F
Forecast: 77 / 99 °F
Wind: 6 mph from Northeast

Location: Shymkent Airport

Current Time: Aug 1, 2015 at 4:33:21 PM

Latest Report: Aug 1, 2015 at 4:00 PM


Visibility: 10 mi

Pressure: 29.68 "Hg (28.08 "Hg at 506m altitude)

Humidity: 11%

Dew point: 39 °F

Location of ShymkentLocation

Historic Weather in Shymkent — Graph

°F

Shymkent temperature yesterday

Maximum temperature yesterday: 100 °F (at 2:30 PM)
Minimum temperature yesterday: 64 °F (at 5:00 AM)
Average temperature yesterday: 85 °F

Past Weeks' High & Low Weather Summary

 TemperatureHumidityPressure
High108 °F (Jul 17, 3:00 PM)83% (Jul 22, 6:00 AM)29.92 "Hg (Jul 22, 6:00 AM)
Low63 °F (Jul 30, 4:30 AM)9% (Jul 25, 5:00 PM)29.50 "Hg (Jul 17, 6:30 PM)
Average86 °F27%29.72 "Hg
* Reported Jul 17 3:00 PM — Aug 1 3:30 PM, Shymkent, Weather by CustomWeather, © 2015

Note: Actual official high and low records may vary slightly from our data, if they occured in-between our weather recording intervals... More about our weather records

Advertising

Shymkent weather history for previous 24 hours

 ConditionsComfort  
Time TempWeatherWind HumidityBarometerVisibility
3:30 PM
Sat, Aug 1
102 °FSunny.10 mph11%29.68 "Hg10 mi
3:00 PM104 °FSunny.3 mph11%29.68 "Hg10 mi
2:30 PM102 °FSunny.8 mph11%29.68 "Hg10 mi
2:00 PM100 °FSunny.10 mph12%29.68 "Hg10 mi
1:30 PM100 °FSunny.10 mph10%29.71 "Hg10 mi
1:00 PM100 °FPassing clouds.3 mph12%29.71 "HgN/A
12:30 PM100 °FSunny.3 mph11%29.71 "Hg10 mi
12:00 PM97 °FSunny.1 mph14%29.71 "Hg10 mi
11:30 AM97 °FSunny.1 mph16%29.71 "Hg10 mi
11:00 AM95 °FSunny.1 mph15%29.71 "Hg10 mi
10:30 AM91 °FSunny.1 mph21%29.71 "Hg10 mi
10:00 AM90 °FSunny.1 mph24%29.74 "Hg10 mi
9:30 AM88 °FSunny.1 mph25%29.74 "Hg10 mi
9:00 AM86 °FSunny.1 mph29%29.74 "Hg10 mi
8:30 AM81 °FSunny.1 mph32%29.74 "Hg10 mi
8:00 AM79 °FSunny.1 mph34%29.74 "Hg10 mi
7:30 AM75 °FSunny.1 mph36%29.74 "Hg10 mi
7:00 AM72 °FSunny.3 mph41%29.74 "Hg10 mi
6:30 AM72 °FSunny.3 mph38%29.71 "Hg10 mi
6:00 AM70 °FClear.3 mph38%29.71 "Hg10 mi
5:30 AM68 °FClear.1 mph40%29.71 "Hg10 mi
5:00 AM68 °FClear.No wind40%29.71 "Hg10 mi
4:30 AM72 °FClear.1 mph36%29.71 "Hg10 mi
3:30 AM73 °FClear.No wind31%29.71 "Hg10 mi
3:00 AM73 °FClear.No wind33%29.71 "Hg10 mi
2:30 AM75 °FClear.1 mph31%29.71 "Hg10 mi
2:00 AM75 °FClear.1 mph29%29.71 "Hg10 mi
1:30 AM72 °FPassing clouds.3 mph36%29.71 "HgN/A
1:00 AM73 °FClear.No wind31%29.71 "Hg10 mi
12:30 AM77 °FClear.1 mph26%29.71 "Hg10 mi
12:00 AM81 °FClear.1 mph21%29.71 "Hg10 mi
11:30 PM
Fri, Jul 31
82 °FClear.6 mph19%29.71 "Hg10 mi
11:00 PM84 °FClear.3 mph18%29.71 "Hg10 mi
10:30 PM88 °FClear.3 mph15%29.71 "Hg10 mi
10:00 PM88 °FPassing clouds.3 mph15%29.71 "HgN/A
9:30 PM90 °FClear.6 mph15%29.71 "Hg10 mi
9:00 PM91 °FClear.6 mph14%29.68 "Hg10 mi
8:30 PM93 °FSunny.10 mph13%29.68 "Hg10 mi
8:00 PM95 °FSunny.10 mph12%29.68 "Hg10 mi
7:30 PM97 °FPassing clouds.6 mph12%29.68 "HgN/A
7:00 PM99 °FPassing clouds.3 mph11%29.68 "HgN/A
6:30 PM99 °FPassing clouds.3 mph12%29.68 "HgN/A
6:00 PM99 °FSunny.10 mph12%29.68 "Hg10 mi
5:30 PM100 °FSunny.10 mph11%29.68 "Hg10 mi
5:00 PM100 °FSunny.8 mph10%29.68 "Hg10 mi
4:30 PM100 °FSunny.10 mph10%29.68 "Hg10 mi
4:00 PM100 °FSunny.6 mph12%29.68 "Hg10 mi
Weather by CustomWeather, © 2015

See weather overviewHow to use our weather pages